Location: Boiro
(42.6475°N, 8.8834°W)
Time: 06:33:22
(UTC+01:00)

Vanguard 1 - Pass Details

Date: 07 December 2021
Orbit: 652 x 3830 km, 34.2° (Epoch: 21 January)

Event Time Altitude Azimuth Distance (km) Brightness Sun altitude
Rises 02:25:49 0° 255° (WSW) 7,305 - -66.5°
Reaches altitude 10° 02:30:21 10° 253° (WSW) 6,537 - -66.0°
Maximum altitude 02:53:06 68° 177° (S) 3,951 - -63.1°
Exits shadow 03:02:27 43° 113° (ESE) 4,335 13.1 -61.8°
Drops below altitude 10° 03:12:49 10° 100° (E) 5,800 14.2 -60.3°
Sets 03:16:33 0° 98° (E) 6,488 14.6 -59.7°
